Home   Weather   Vientiane   Past weeks

Flag for Laos Past Weather in Vientiane, Laos — Yesterday and Last 2 Weeks

Now
81 °F

Scattered clouds.


Feels Like: 82 °F
Forecast: 67 / 86 °F
Wind: 2 mph from North

Location: Vientiane Airport

Current Time: Dec 4, 2016 at 11:07:20 am

Latest Report: Dec 4, 2016 at 10:30 am


Visibility: 4 mi

Pressure: 30.01 "Hg

Humidity: 54%

Dew Point: 63 °F

Location of VientianeLocation

Past Weather in Vientiane — Graph

°F

Vientiane Temperature Yesterday

Maximum temperature yesterday: 84 °F (at 1:00 pm)
Minimum temperature yesterday: 68 °F (at 6:00 am)
Average temperature yesterday: 77 °F

High & Low Weather Summary for the Past Weeks

 TemperatureHumidityPressure
High91 °F (Nov 19, 3:00 pm)100% (Nov 21, 7:00 am)30.12 "Hg (Nov 21, 7:00 am)
Low66 °F (Nov 29, 6:00 am)46% (Nov 28, 1:30 pm)29.71 "Hg (Nov 21, 4:30 pm)
Average80 °F71%29.91 "Hg
* Reported Nov 19 9:00 am — Dec 4 9:00 am, Vientiane, Weather by CustomWeather, © 2016

Note: Actual official high and low records may vary slightly from our data, if they occured in-between our weather recording intervals... More about our weather records

Advertising

Vientiane Weather History for the Previous 24 Hours

Scroll right to see more
 ConditionsComfort  
Time TempWeatherWind HumidityBarometerVisibility
9:00 am
Sun, Dec 4
75 °FFog.5 mph69%30.04 "Hg3 mi
8:30 am73 °FFog.2 mph78%30.04 "Hg3 mi
8:00 am72 °FFog.2 mph83%30.01 "Hg3 mi
7:30 am70 °FFog.2 mph94%30.01 "Hg3 mi
7:00 am70 °FFog.2 mph94%30.01 "Hg3 mi
6:30 am73 °FFog.2 mph78%29.98 "Hg3 mi
12:00 am73 °FFog.2 mph78%30.01 "Hg3 mi
11:30 pm
Sat, Dec 3
73 °FFog.2 mph89%30.04 "Hg3 mi
11:00 pm73 °FFog.2 mph89%30.04 "Hg3 mi
10:30 pm77 °FFog.2 mph79%30.01 "Hg3 mi
10:00 pm77 °FFog.2 mph79%30.01 "Hg3 mi
9:30 pm73 °FFog.2 mph89%30.01 "Hg3 mi
9:00 pm77 °FFog.2 mph79%30.01 "Hg3 mi
8:30 pm79 °FFog.2 mph74%29.98 "Hg3 mi
8:00 pm79 °FFog.2 mph74%29.98 "Hg3 mi
7:00 pm81 °FFog.2 mph70%29.98 "Hg3 mi
6:30 pm82 °FFog.2 mph70%29.95 "Hg3 mi
6:00 pm82 °FFog.2 mph70%29.95 "Hg3 mi
5:30 pm84 °FScattered clouds.2 mph58%29.95 "Hg5 mi
5:00 pm84 °FScattered clouds.2 mph58%29.95 "Hg5 mi
2:00 pm84 °FScattered clouds.2 mph58%29.95 "Hg5 mi
1:30 pm84 °FScattered clouds.2 mph58%29.98 "Hg5 mi
1:00 pm84 °FScattered clouds.2 mph58%29.98 "Hg5 mi
12:30 pm82 °FScattered clouds.2 mph58%30.04 "Hg5 mi
12:00 pm82 °FScattered clouds.2 mph58%30.04 "Hg5 mi
11:30 am81 °FPartly sunny.2 mph62%30.07 "Hg5 mi
11:00 am81 °FPartly sunny.2 mph62%30.07 "Hg5 mi
Weather by CustomWeather, © 2016

See weather overviewHow to use our weather pages